This demonstration page uses our WeatherBlox Daily Observations layout. Learn more.

Left ArrowRight Arrow

39.51506, -84.39828

Hourly Observations for May 28, 2019

Temp ( °F °C ) Dew Point ( °F °C ) Humidity (%) Winds ( mph kmh ) Pressure ( in mb ) Visibility ( mi km ) Precip ( " mm )
12:15 am 00:15 Partly Cloudy with Nearby Thunderstorms 75 24.1 68 20.2 79 79 WSW 10 17 29.80 1009 10 16 N/A
12:35 am 00:35 Clear 76 24.2 68 20.1 78 78 WSW 12 19 29.80 1009 10 16 N/A
12:55 am 00:55 Clear 75 24 68 20 78 78 SW 8 13 29.80 1009 10 16 N/A
1:15 am 01:15 Clear 74 23.2 68 19.8 81 81 WSW 9 15 29.80 1009 10 16 N/A
1:35 am 01:35 Clear 74 23.3 68 19.8 81 81 WSW 9 15 29.79 1009 10 16 N/A
1:55 am 01:55 Clear 73 22.7 67 19.7 83 83 WSW 8 13 29.79 1009 10 16 N/A
2:15 am 02:15 Clear 73 22.6 67 19.7 84 84 WSW 8 13 29.78 1008 10 16 N/A
2:35 am 02:35 Clear 73 22.5 67 19.7 84 84 WSW 8 13 29.77 1008 10 16 N/A
2:55 am 02:55 Clear 73 22.5 67 19.6 84 84 WSW 8 13 29.77 1008 10 16 N/A
3:15 am 03:15 Clear 72 22.2 67 19.6 85 85 WSW 8 13 29.77 1008 10 16 N/A
3:35 am 03:35 Clear 73 22.6 67 19.6 83 83 WSW 10 17 29.77 1008 10 16 N/A
3:55 am 03:55 Clear 73 22.5 67 19.5 83 83 WSW 9 15 29.76 1008 10 16 N/A
4:15 am 04:15 Clear 72 22.1 67 19.5 85 85 WSW 9 15 29.76 1008 10 16 N/A
4:35 am 04:35 Clear 72 22.2 67 19.5 85 85 WSW 9 15 29.76 1008 10 16 N/A
4:55 am 04:55 Clear 72 22.3 67 19.5 84 84 WSW 9 15 29.77 1008 10 16 N/A
5:15 am 05:15 Partly Cloudy 72 22.1 67 19.5 85 85 WSW 8 13 29.77 1008 10 16 N/A
5:35 am 05:35 Clear 71 21.9 67 19.4 86 86 WSW 8 13 29.78 1008 10 16 N/A
5:55 am 05:55 Clear 70 21.3 67 19.3 88 88 WSW 7 11 29.79 1009 10 16 N/A
6:15 am 06:15 Sunny 71 21.7 67 19.4 87 87 SW 8 13 29.79 1009 10 16 N/A
6:35 am 06:35 Sunny 71 21.8 67 19.5 87 87 WSW 7 11 29.79 1009 10 16 N/A
6:55 am 06:55 Sunny 71 21.6 67 19.5 88 88 WSW 7 11 29.80 1009 10 16 N/A
7:15 am 07:15 Sunny 72 22.1 67 19.6 86 86 WSW 8 13 29.80 1009 10 16 N/A
7:35 am 07:35 Sunny 73 22.7 68 19.9 84 84 WSW 9 15 29.80 1009 10 16 N/A
7:55 am 07:55 Sunny 74 23.5 68 20 81 81 WSW 12 19 29.80 1009 10 16 N/A
8:15 am 08:15 Partly Cloudy 75 24 68 20.1 79 79 WSW 10 17 29.80 1009 10 16 N/A
8:35 am 08:35 Sunny 76 24.5 69 20.3 78 78 WSW 10 17 29.79 1009 10 16 N/A
8:55 am 08:55 Partly Cloudy 76 24.5 68 20.2 77 77 WSW 9 15 29.79 1009 10 16 N/A
9:15 am 09:15 Sunny 77 25.2 69 20.4 75 75 WSW 13 20 29.79 1009 10 16 N/A
9:35 am 09:35 Sunny 79 25.9 69 20.8 74 74 WSW 15 24 29.78 1009 10 16 N/A
9:55 am 09:55 Sunny 79 26.1 69 20.5 71 71 W 14 22 29.78 1008 10 16 N/A
10:15 am 10:15 Sunny 80 26.7 69 20.6 69 69 WSW 16 26 29.78 1008 10 16 N/A
10:35 am 10:35 Sunny 80 26.8 69 20.4 68 68 W 14 22 29.77 1008 10 16 N/A
10:55 am 10:55 Sunny 81 27.4 69 20.3 65 65 WSW 18 30 29.78 1008 10 16 N/A
11:15 am 11:15 Sunny 82 27.8 69 20.7 65 65 WSW 16 26 29.78 1008 10 16 N/A
11:35 am 11:35 Sunny 83 28.1 69 20.8 65 65 WSW 16 26 29.78 1008 10 16 N/A
11:55 am 11:55 Sunny 83 28.4 70 21.1 65 65 WSW 16 26 29.78 1008 10 16 N/A
12:15 pm 12:15 Sunny 84 28.7 70 20.9 63 63 W 14 22 29.78 1008 10 16 N/A
12:35 pm 12:35 Mostly Cloudy 84 28.8 70 21 63 63 WSW 16 26 29.77 1008 10 16 N/A
12:55 pm 12:55 Mostly Cloudy 84 28.8 70 21.1 63 63 W 14 22 29.77 1008 10 16 N/A
1:15 pm 13:15 Mostly Cloudy 83 28.2 69 20.4 63 63 W 17 28 29.77 1008 10 16 N/A
1:35 pm 13:35 Mostly Cloudy 84 29.1 68 20.2 59 59 WSW 20 31 29.76 1008 10 16 N/A
1:55 pm 13:55 Partly Cloudy 85 29.7 69 20.7 58 58 W 14 22 29.76 1008 10 16 N/A
2:15 pm 14:15 Partly Cloudy 85 29.5 70 21 60 60 WSW 13 20 29.76 1008 10 16 N/A
2:35 pm 14:35 Partly Cloudy 85 29.7 68 20.2 57 57 W 17 28 29.76 1008 10 16 N/A
2:55 pm 14:55 Partly Cloudy 86 29.9 68 19.9 55 55 WSW 17 28 29.76 1008 10 16 N/A
3:15 pm 15:15 Sunny 86 30.1 68 19.9 54 54 WSW 23 37 29.76 1008 10 16 N/A
3:35 pm 15:35 Sunny 86 30.1 66 19 51 51 WSW 21 33 29.75 1008 10 16 N/A
3:55 pm 15:55 Sunny 87 30.3 67 19.5 52 52 W 20 31 29.75 1007 10 16 N/A
4:15 pm 16:15 Sunny 86 30.2 67 19.3 52 52 WSW 17 28 29.74 1007 10 16 N/A
4:35 pm 16:35 Sunny 86 30.2 66 18.7 50 50 W 16 26 29.73 1007 10 16 N/A
4:55 pm 16:55 Partly Cloudy 86 30 66 18.8 51 51 W 21 33 29.73 1007 10 16 N/A
5:15 pm 17:15 Sunny 86 29.9 66 19.1 52 52 W 14 22 29.71 1006 10 16 N/A
5:35 pm 17:35 Sunny 86 30 66 18.8 51 51 WSW 18 30 29.72 1007 10 16 N/A
5:55 pm 17:55 Partly Cloudy 85 29.5 64 17.7 49 49 W 20 31 29.73 1007 10 16 N/A
6:15 pm 18:15 Mostly Cloudy 84 28.9 64 18 52 52 W 14 22 29.74 1007 10 16 N/A
6:35 pm 18:35 Mostly Cloudy 84 28.9 65 18.1 52 52 W 13 20 29.74 1007 10 16 N/A
6:55 pm 18:55 Partly Cloudy 84 28.7 65 18.5 54 54 W 10 17 29.75 1007 10 16 N/A
7:15 pm 19:15 Partly Cloudy 84 28.7 65 18.5 54 54 W 12 19 29.76 1008 10 16 N/A
7:35 pm 19:35 Partly Cloudy 83 28.2 65 18.5 56 56 W 13 20 29.76 1008 10 16 N/A
7:55 pm 19:55 Sunny 83 28.1 65 18.2 55 55 W 12 19 29.76 1008 10 16 N/A
8:15 pm 20:15 Sunny 80 26.9 65 18.6 60 60 WSW 9 15 29.74 1007 10 16 N/A
8:35 pm 20:35 Sunny 78 25.6 66 18.7 66 66 WSW 7 11 29.73 1007 10 16 N/A
8:55 pm 20:55 Sunny 76 24.5 66 18.9 71 71 SW 6 9 29.72 1007 10 16 N/A
9:15 pm 21:15 Clear 74 23.4 66 19.1 77 77 SW 3 6 29.73 1007 10 16 N/A
9:35 pm 21:35 Clear 72 22.4 67 19.5 84 84 SW 5 7 29.73 1007 10 16 N/A
9:55 pm 21:55 Clear 70 21.3 67 19.5 90 90 W 5 7 29.74 1007 10 16 N/A
10:15 pm 22:15 Clear 70 21.2 67 19.2 88 88 W 5 7 29.74 1007 10 16 N/A
10:35 pm 22:35 Clear 71 21.8 66 18.9 84 84 WSW 6 9 29.74 1007 10 16 N/A
10:55 pm 22:55 Clear 71 21.6 66 18.9 85 85 WSW 6 9 29.75 1007 10 16 N/A
11:15 pm 23:15 Clear 71 21.7 66 19.1 85 85 SW 5 7 29.74 1007 10 16 N/A
11:35 pm 23:35 Clear 72 22.3 66 18.9 81 81 WNW 5 7 29.75 1007 10 16 N/A
11:55 pm 23:55 Clear 70 21 66 19 88 88 W 5 7 29.76 1008 10 16 N/A

Powered by AerisWeather